Wetterdaten: aktuell Mittwoch, 18.10.2017 10:55
Datum Zeit Temp. A. Temp. A. min Feuchte A. Luftdruck Regen Wind Richtung Richtung Sonnenschein Solar Taupunkt Windchill Windben
18.10.2017 10:55 12,3 C 12,2 C 94 % 1016,1 hPa 0,0 l/m 2,3 km/h (1 Bft) S-SW 193 0 min 0 W/m 11,4 C 12,3 C 4,8 km/h (1 Bft)
18.10.2017 10:50 12,2 C 11,9 C 95 % 1016,2 hPa 0,0 l/m 2,6 km/h (1 Bft) S-SW 209 0 min 0 W/m 11,4 C 12,2 C 4,8 km/h (1 Bft)
18.10.2017 10:45 11,9 C 11,8 C 95 % 1016,2 hPa 0,0 l/m 2,6 km/h (1 Bft) S 173 0 min 0 W/m 11,1 C 11,9 C 4,8 km/h (1 Bft)
18.10.2017 10:40 11,8 C 11,5 C 96 % 1016,2 hPa 0,0 l/m 3,0 km/h (1 Bft) SW 223 0 min 0 W/m 11,2 C 11,8 C 6,4 km/h (2 Bft)
18.10.2017 10:35 11,5 C 11,2 C 96 % 1016,2 hPa 0,0 l/m 4,7 km/h (1 Bft) S 187 0 min 0 W/m 10,9 C 11,5 C 8,0 km/h (2 Bft)
18.10.2017 10:30 11,2 C 10,9 C 96 % 1016,2 hPa 0,0 l/m 5,3 km/h (1 Bft) S 188 0 min 0 W/m 10,6 C 11,2 C 9,7 km/h (2 Bft)
18.10.2017 10:25 10,9 C 10,7 C 96 % 1016,2 hPa 0,0 l/m 3,6 km/h (1 Bft) SW 220 0 min 0 W/m 10,3 C 10,9 C 9,7 km/h (2 Bft)
18.10.2017 10:20 10,7 C 10,6 C 96 % 1016,3 hPa 0,0 l/m 4,8 km/h (1 Bft) S 170 0 min 0 W/m 10,1 C 10,7 C 9,7 km/h (2 Bft)
18.10.2017 10:15 10,6 C 10,6 C 96 % 1016,3 hPa 0,0 l/m 5,9 km/h (2 Bft) S 188 0 min 0 W/m 10,0 C 10,6 C 11,3 km/h (2 Bft)
18.10.2017 10:10 10,6 C 10,4 C 97 % 1016,4 hPa 0,0 l/m 7,5 km/h (2 Bft) S-SW 211 0 min 0 W/m 10,1 C 10,6 C 11,3 km/h (2 Bft)
18.10.2017 10:05 10,4 C 10,2 C 97 % 1016,4 hPa 0,0 l/m 7,0 km/h (2 Bft) S-SW 197 0 min 0 W/m 9,9 C 10,4 C 11,3 km/h (2 Bft)
18.10.2017 10:00 10,2 C 9,8 C 97 % 1016,3 hPa 0,0 l/m 4,1 km/h (1 Bft) S 188 0 min 0 W/m 9,7 C 10,2 C 9,7 km/h (2 Bft)
18.10.2017 09:55 9,8 C 9,6 C 97 % 1016,2 hPa 0,0 l/m 2,2 km/h (1 Bft) S-SW 198 0 min 0 W/m 9,3 C 9,8 C 4,8 km/h (1 Bft)
18.10.2017 09:50 9,6 C 9,3 C 97 % 1016,2 hPa 0,0 l/m 1,1 km/h (1 Bft) W-NW 298 0 min 0 W/m 9,1 C 9,6 C 3,2 km/h (1 Bft)
18.10.2017 09:45 9,3 C 8,9 C 97 % 1016,2 hPa 0,0 l/m 2,9 km/h (1 Bft) N-NW 339 0 min 0 W/m 8,8 C 9,3 C 6,4 km/h (2 Bft)
18.10.2017 09:40 8,9 C 8,6 C 96 % 1016,3 hPa 0,0 l/m 3,8 km/h (1 Bft) N 5 0 min 0 W/m 8,3 C 8,9 C 6,4 km/h (2 Bft)
18.10.2017 09:35 8,6 C 8,3 C 96 % 1016,4 hPa 0,0 l/m 3,9 km/h (1 Bft) N 5 0 min 0 W/m 8,0 C 8,6 C 6,4 km/h (2 Bft)
18.10.2017 09:30 8,3 C 7,9 C 96 % 1016,5 hPa 0,0 l/m 4,1 km/h (1 Bft) N-NO 28 0 min 0 W/m 7,7 C 8,3 C 6,4 km/h (2 Bft)
18.10.2017 09:25 7,9 C 7,8 C 96 % 1016,6 hPa 0,0 l/m 1,0 km/h (0 Bft) SW 223 0 min 0 W/m 7,3 C 7,9 C 3,2 km/h (1 Bft)
18.10.2017 09:20 7,8 C 7,6 C 96 % 1016,8 hPa 0,0 l/m 0,8 km/h (0 Bft) SW 223 0 min 0 W/m 7,2 C 7,8 C 3,2 km/h (1 Bft)
18.10.2017 09:15 7,6 C 7,5 C 96 % 1016,8 hPa 0,0 l/m 0,4 km/h (0 Bft) SW 223 0 min 0 W/m 7,0 C 7,6 C 1,6 km/h (1 Bft)
18.10.2017 09:10 7,5 C 7,3 C 96 % 1016,8 hPa 0,0 l/m 1,8 km/h (1 Bft) SW 223 0 min 0 W/m 6,9 C 7,5 C 3,2 km/h (1 Bft)
18.10.2017 09:05 7,3 C 7,2 C 96 % 1016,9 hPa 0,0 l/m 0,7 km/h (0 Bft) SW 223 0 min 0 W/m 6,7 C 7,3 C 1,6 km/h (1 Bft)
18.10.2017 09:00 7,2 C 7,1 C 96 % 1016,8 hPa 0,0 l/m 0,0 km/h (0 Bft) SW 223 0 min 0 W/m 6,6 C 7,2 C 0,0 km/h (0 Bft)
18.10.2017 08:55 7,1 C 6,9 C 95 % 1016,8 hPa 0,0 l/m 0,0 km/h (0 Bft) SW 223 0 min 0 W/m 6,4 C 7,1 C 0,0 km/h (0 Bft)
18.10.2017 08:50 6,9 C 6,9 C 95 % 1016,7 hPa 0,0 l/m 0,5 km/h (0 Bft) SW 223 0 min 0 W/m 6,2 C 6,9 C 1,6 km/h (1 Bft)
18.10.2017 08:45 6,9 C 6,9 C 95 % 1016,8 hPa 0,0 l/m 0,3 km/h (0 Bft) SW 223 0 min 0 W/m 6,2 C 6,9 C 1,6 km/h (1 Bft)
18.10.2017 08:40 6,9 C 6,9 C 95 % 1016,8 hPa 0,0 l/m 1,6 km/h (1 Bft) SW 223 0 min 0 W/m 6,2 C 6,9 C 3,2 km/h (1 Bft)
18.10.2017 08:35 6,9 C 6,9 C 95 % 1016,7 hPa 0,0 l/m 1,5 km/h (1 Bft) SW 223 0 min 0 W/m 6,2 C 6,9 C 3,2 km/h (1 Bft)
18.10.2017 08:30 6,9 C 6,9 C 95 % 1016,7 hPa 0,0 l/m 0,9 km/h (0 Bft) SW 225 0 min 0 W/m 6,2 C 6,9 C 3,2 km/h (1 Bft)
18.10.2017 08:25 6,9 C 6,9 C 95 % 1016,6 hPa 0,0 l/m 0,5 km/h (0 Bft) SW 225 0 min 0 W/m 6,2 C 6,9 C 3,2 km/h (1 Bft)
18.10.2017 08:20 6,9 C 6,9 C 95 % 1016,5 hPa 0,0 l/m 0,7 km/h (0 Bft) SW 225 0 min 0 W/m 6,2 C 6,9 C 3,2 km/h (1 Bft)
18.10.2017 08:15 6,9 C 6,9 C 95 % 1016,5 hPa 0,0 l/m 0,1 km/h (0 Bft) SW 225 0 min 0 W/m 6,2 C 6,9 C 1,6 km/h (1 Bft)
18.10.2017 08:10 6,9 C 6,8 C 95 % 1016,5 hPa 0,0 l/m 0,7 km/h (0 Bft) SW 225 0 min 0 W/m 6,2 C 6,9 C 3,2 km/h (1 Bft)
18.10.2017 08:05 6,8 C 6,8 C 95 % 1016,4 hPa 0,0 l/m 1,6 km/h (1 Bft) SW 225 0 min 0 W/m 6,1 C 6,8 C 3,2 km/h (1 Bft)
18.10.2017 08:00 6,8 C 6,8 C 95 % 1016,3 hPa 0,0 l/m 2,1 km/h (1 Bft) SW 225 0 min 0 W/m 6,1 C 6,8 C 3,2 km/h (1 Bft)
18.10.2017 07:55 6,9 C 6,9 C 95 % 1016,4 hPa 0,0 l/m 0,8 km/h (0 Bft) SW 225 0 min 0 W/m 6,2 C 6,9 C 3,2 km/h (1 Bft)
18.10.2017 07:50 6,9 C 6,9 C 95 % 1016,4 hPa 0,0 l/m 0,9 km/h (0 Bft) SW 225 0 min 0 W/m 6,2 C 6,9 C 3,2 km/h (1 Bft)
18.10.2017 07:45 6,9 C 6,9 C 95 % 1016,4 hPa 0,0 l/m 1,4 km/h (1 Bft) SW 225 0 min 0 W/m 6,2 C 6,9 C 3,2 km/h (1 Bft)
18.10.2017 07:40 6,9 C 6,9 C 95 % 1016,4 hPa 0,0 l/m 0,0 km/h (0 Bft) SW 225 0 min 0 W/m 6,2 C 6,9 C 1,6 km/h (1 Bft)
18.10.2017 07:35 7,0 C 7,0 C 95 % 1016,4 hPa 0,0 l/m 0,3 km/h (0 Bft) SW 225 0 min 0 W/m 6,3 C 7,0 C 1,6 km/h (1 Bft)
18.10.2017 07:30 7,1 C 7,1 C 95 % 1016,4 hPa 0,0 l/m 0,3 km/h (0 Bft) SW 225 0 min 0 W/m 6,4 C 7,1 C 1,6 km/h (1 Bft)
18.10.2017 07:25 7,2 C 7,2 C 95 % 1016,4 hPa 0,0 l/m 1,2 km/h (1 Bft) SW 225 0 min 0 W/m 6,5 C 7,2 C 3,2 km/h (1 Bft)
18.10.2017 07:20 7,2 C 7,1 C 95 % 1016,3 hPa 0,0 l/m 0,2 km/h (0 Bft) SW 225 0 min 0 W/m 6,5 C 7,2 C 1,6 km/h (1 Bft)
18.10.2017 07:15 7,1 C 7,0 C 95 % 1016,4 hPa 0,0 l/m 1,4 km/h (1 Bft) SW 225 0 min 0 W/m 6,4 C 7,1 C 3,2 km/h (1 Bft)
18.10.2017 07:10 7,0 C 7,0 C 95 % 1016,4 hPa 0,0 l/m 0,4 km/h (0 Bft) SW 225 0 min 0 W/m 6,3 C 7,0 C 3,2 km/h (1 Bft)
18.10.2017 07:05 7,0 C 7,0 C 95 % 1016,4 hPa 0,0 l/m 0,2 km/h (0 Bft) SW 225 0 min 0 W/m 6,3 C 7,0 C 1,6 km/h (1 Bft)
18.10.2017 07:00 7,0 C 7,0 C 95 % 1016,4 hPa 0,0 l/m 1,0 km/h (0 Bft) SW 225 0 min 0 W/m 6,3 C 7,0 C 3,2 km/h (1 Bft)
18.10.2017 06:55 7,1 C 7,1 C 95 % 1016,5 hPa 0,0 l/m 1,0 km/h (0 Bft) SW 225 0 min 0 W/m 6,4 C 7,1 C 3,2 km/h (1 Bft)
18.10.2017 06:50 7,1 C 7,1 C 95 % 1016,5 hPa 0,0 l/m 0,2 km/h (0 Bft) SW 225 0 min 0 W/m 6,4 C 7,1 C 1,6 km/h (1 Bft)
18.10.2017 06:45 7,1 C 7,1 C 95 % 1016,5 hPa 0,0 l/m 0,9 km/h (0 Bft) SW 225 0 min 0 W/m 6,4 C 7,1 C 3,2 km/h (1 Bft)
18.10.2017 06:40 7,1 C 7,1 C 95 % 1016,5 hPa 0,0 l/m 1,2 km/h (1 Bft) SW 225 0 min 0 W/m 6,4 C 7,1 C 3,2 km/h (1 Bft)
18.10.2017 06:35 7,2 C 7,2 C 95 % 1016,4 hPa 0,0 l/m 0,3 km/h (0 Bft) SW 225 0 min 0 W/m 6,5 C 7,2 C 3,2 km/h (1 Bft)
18.10.2017 06:30 7,2 C 7,2 C 95 % 1016,4 hPa 0,0 l/m 0,4 km/h (0 Bft) SW 225 0 min 0 W/m 6,5 C 7,2 C 1,6 km/h (1 Bft)
18.10.2017 06:25 7,3 C 7,3 C 95 % 1016,5 hPa 0,0 l/m 0,0 km/h (0 Bft) SW 225 0 min 0 W/m 6,6 C 7,3 C 1,6 km/h (1 Bft)
18.10.2017 06:20 7,3 C 7,3 C 95 % 1016,4 hPa 0,0 l/m 1,0 km/h (0 Bft) SW 225 0 min 0 W/m 6,6 C 7,3 C 3,2 km/h (1 Bft)
18.10.2017 06:15 7,3 C 7,3 C 95 % 1016,5 hPa 0,0 l/m 0,9 km/h (0 Bft) SW 225 0 min 0 W/m 6,6 C 7,3 C 3,2 km/h (1 Bft)
18.10.2017 06:10 7,3 C 7,3 C 95 % 1016,5 hPa 0,0 l/m 0,1 km/h (0 Bft) SW 225 0 min 0 W/m 6,6 C 7,3 C 1,6 km/h (1 Bft)
18.10.2017 06:05 7,3 C 7,3 C 95 % 1016,5 hPa 0,0 l/m 0,1 km/h (0 Bft) SW 225 0 min 0 W/m 6,6 C 7,3 C 1,6 km/h (1 Bft)
18.10.2017 06:00 7,4 C 7,4 C 95 % 1016,6 hPa 0,0 l/m 1,4 km/h (1 Bft) SW 225 0 min 0 W/m 6,7 C 7,4 C 3,2 km/h (1 Bft)
18.10.2017 05:55 7,4 C 7,4 C 95 % 1016,6 hPa 0,0 l/m 1,1 km/h (1 Bft) SW 225 0 min 0 W/m 6,7 C 7,4 C 3,2 km/h (1 Bft)
18.10.2017 05:50 7,4 C 7,4 C 95 % 1016,6 hPa 0,0 l/m 1,5 km/h (1 Bft) SW 225 0 min 0 W/m 6,7 C 7,4 C 3,2 km/h (1 Bft)
18.10.2017 05:45 7,4 C 7,4 C 95 % 1016,5 hPa 0,0 l/m 1,3 km/h (1 Bft) SW 225 0 min 0 W/m 6,7 C 7,4 C 3,2 km/h (1 Bft)
18.10.2017 05:40 7,5 C 7,5 C 94 % 1016,5 hPa 0,0 l/m 1,8 km/h (1 Bft) SW 225 0 min 0 W/m 6,6 C 7,5 C 4,8 km/h (1 Bft)
18.10.2017 05:35 7,6 C 7,6 C 94 % 1016,5 hPa 0,0 l/m 0,8 km/h (0 Bft) N-NW 343 0 min 0 W/m 6,7 C 7,6 C 3,2 km/h (1 Bft)
18.10.2017 05:30 7,6 C 7,6 C 94 % 1016,5 hPa 0,0 l/m 0,2 km/h (0 Bft) N-NW 344 0 min 0 W/m 6,7 C 7,6 C 3,2 km/h (1 Bft)
18.10.2017 05:25 7,7 C 7,7 C 95 % 1016,5 hPa 0,0 l/m 0,0 km/h (0 Bft) N-NW 344 0 min 0 W/m 7,0 C 7,7 C 0,0 km/h (0 Bft)
18.10.2017 05:20 7,7 C 7,7 C 95 % 1016,6 hPa 0,0 l/m 0,3 km/h (0 Bft) N-NW 344 0 min 0 W/m 7,0 C 7,7 C 3,2 km/h (1 Bft)
18.10.2017 05:15 7,7 C 7,7 C 95 % 1016,5 hPa 0,0 l/m 0,1 km/h (0 Bft) N-NW 344 0 min 0 W/m 7,0 C 7,7 C 1,6 km/h (1 Bft)
18.10.2017 05:10 7,7 C 7,7 C 95 % 1016,5 hPa 0,0 l/m 1,3 km/h (1 Bft) N-NW 344 0 min 0 W/m 7,0 C 7,7 C 3,2 km/h (1 Bft)
18.10.2017 05:05 7,7 C 7,7 C 95 % 1016,6 hPa 0,0 l/m 1,5 km/h (1 Bft) N-NO 17 0 min 0 W/m 7,0 C 7,7 C 3,2 km/h (1 Bft)
18.10.2017 05:00 7,8 C 7,8 C 94 % 1016,6 hPa 0,0 l/m 1,2 km/h (1 Bft) N-NO 17 0 min 0 W/m 6,9 C 7,8 C 3,2 km/h (1 Bft)
18.10.2017 04:55 7,8 C 7,8 C 95 % 1016,6 hPa 0,0 l/m 0,9 km/h (0 Bft) N-NO 17 0 min 0 W/m 7,0 C 7,8 C 1,6 km/h (1 Bft)
18.10.2017 04:50 7,8 C 7,8 C 95 % 1016,7 hPa 0,0 l/m 3,0 km/h (1 Bft) N-NO 17 0 min 0 W/m 7,0 C 7,8 C 4,8 km/h (1 Bft)
18.10.2017 04:45 7,8 C 7,8 C 94 % 1016,7 hPa 0,0 l/m 2,3 km/h (1 Bft) N 349 0 min 0 W/m 6,9 C 7,8 C 3,2 km/h (1 Bft)
18.10.2017 04:40 7,8 C 7,8 C 94 % 1016,7 hPa 0,0 l/m 0,3 km/h (0 Bft) N-NW 347 0 min 0 W/m 6,9 C 7,8 C 1,6 km/h (1 Bft)
18.10.2017 04:35 7,8 C 7,8 C 94 % 1016,8 hPa 0,0 l/m 0,8 km/h (0 Bft) N-NW 347 0 min 0 W/m 6,9 C 7,8 C 3,2 km/h (1 Bft)
18.10.2017 04:30 7,8 C 7,8 C 94 % 1016,8 hPa 0,0 l/m 0,0 km/h (0 Bft) N-NW 347 0 min 0 W/m 6,9 C 7,8 C 0,0 km/h (0 Bft)
18.10.2017 04:25 7,8 C 7,8 C 94 % 1016,8 hPa 0,0 l/m 0,0 km/h (0 Bft) N-NW 347 0 min 0 W/m 6,9 C 7,8 C 0,0 km/h (0 Bft)
18.10.2017 04:20 7,9 C 7,9 C 94 % 1016,8 hPa 0,0 l/m 0,0 km/h (0 Bft) N-NW 347 0 min 0 W/m 7,0 C 7,9 C 1,6 km/h (1 Bft)
18.10.2017 04:15 7,9 C 7,9 C 94 % 1016,8 hPa 0,0 l/m 0,0 km/h (0 Bft) N-NW 347 0 min 0 W/m 7,0 C 7,9 C 0,0 km/h (0 Bft)
18.10.2017 04:10 7,9 C 7,9 C 94 % 1016,7 hPa 0,0 l/m 0,0 km/h (0 Bft) N-NW 348 0 min 0 W/m 7,0 C 7,9 C 0,0 km/h (0 Bft)
18.10.2017 04:05 8,0 C 8,0 C 94 % 1016,7 hPa 0,0 l/m 0,0 km/h (0 Bft) N-NW 347 0 min 0 W/m 7,1 C 8,0 C 0,0 km/h (0 Bft)
18.10.2017 04:00 8,1 C 8,0 C 94 % 1016,7 hPa 0,0 l/m 1,1 km/h (1 Bft) N-NW 347 0 min 0 W/m 7,2 C 8,1 C 3,2 km/h (1 Bft)
18.10.2017 03:55 8,1 C 8,1 C 94 % 1016,7 hPa 0,0 l/m 0,6 km/h (0 Bft) N-NW 347 0 min 0 W/m 7,2 C 8,1 C 1,6 km/h (1 Bft)
18.10.2017 03:50 8,1 C 8,1 C 94 % 1016,7 hPa 0,0 l/m 0,8 km/h (0 Bft) N-NW 347 0 min 0 W/m 7,2 C 8,1 C 1,6 km/h (1 Bft)
18.10.2017 03:45 8,2 C 8,2 C 94 % 1016,7 hPa 0,0 l/m 1,2 km/h (1 Bft) N-NW 347 0 min 0 W/m 7,3 C 8,2 C 3,2 km/h (1 Bft)
18.10.2017 03:40 8,2 C 8,2 C 94 % 1016,7 hPa 0,0 l/m 0,9 km/h (0 Bft) N-NW 346 0 min 0 W/m 7,3 C 8,2 C 3,2 km/h (1 Bft)
18.10.2017 03:35 8,3 C 8,3 C 94 % 1016,7 hPa 0,0 l/m 1,0 km/h (0 Bft) N 5 0 min 0 W/m 7,4 C 8,3 C 3,2 km/h (1 Bft)
18.10.2017 03:30 8,3 C 8,3 C 94 % 1016,8 hPa 0,0 l/m 0,0 km/h (0 Bft) N 5 0 min 0 W/m 7,4 C 8,3 C 1,6 km/h (1 Bft)
18.10.2017 03:25 8,4 C 8,4 C 94 % 1016,8 hPa 0,0 l/m 0,5 km/h (0 Bft) N 5 0 min 0 W/m 7,5 C 8,4 C 1,6 km/h (1 Bft)
18.10.2017 03:20 8,4 C 8,4 C 94 % 1016,9 hPa 0,0 l/m 0,2 km/h (0 Bft) N 5 0 min 0 W/m 7,5 C 8,4 C 1,6 km/h (1 Bft)
18.10.2017 03:15 8,4 C 8,4 C 94 % 1016,9 hPa 0,0 l/m 0,0 km/h (0 Bft) N 5 0 min 0 W/m 7,5 C 8,4 C 0,0 km/h (0 Bft)
18.10.2017 03:10 8,5 C 8,5 C 94 % 1016,9 hPa 0,0 l/m 0,5 km/h (0 Bft) N 5 0 min 0 W/m 7,6 C 8,5 C 3,2 km/h (1 Bft)
18.10.2017 03:05 8,6 C 8,6 C 94 % 1017,0 hPa 0,0 l/m 0,7 km/h (0 Bft) N 5 0 min 0 W/m 7,7 C 8,6 C 3,2 km/h (1 Bft)
18.10.2017 03:00 8,6 C 8,6 C 94 % 1017,1 hPa 0,0 l/m 0,0 km/h (0 Bft) N 5 0 min 0 W/m 7,7 C 8,6 C 0,0 km/h (0 Bft)
18.10.2017 02:55 8,7 C 8,6 C 94 % 1017,1 hPa 0,0 l/m 0,0 km/h (0 Bft) N 5 0 min 0 W/m 7,8 C 8,7 C 0,0 km/h (0 Bft)
18.10.2017 02:50 8,7 C 8,7 C 94 % 1017,0 hPa 0,0 l/m 0,0 km/h (0 Bft) N 5 0 min 0 W/m 7,8 C 8,7 C 1,6 km/h (1 Bft)
18.10.2017 02:45 8,7 C 8,7 C 94 % 1017,1 hPa 0,0 l/m 0,7 km/h (0 Bft) N 5 0 min 0 W/m 7,8 C 8,7 C 1,6 km/h (1 Bft)
18.10.2017 02:40 8,7 C 8,7 C 94 % 1017,1 hPa 0,0 l/m 0,0 km/h (0 Bft) N 5 0 min 0 W/m 7,8 C 8,7 C 1,6 km/h (1 Bft)
18.10.2017 02:35 8,8 C 8,8 C 93 % 1017,2 hPa 0,0 l/m 0,0 km/h (0 Bft) N 5 0 min 0 W/m 7,7 C 8,8 C 0,0 km/h (0 Bft)
18.10.2017 02:30 8,8 C 8,8 C 93 % 1017,2 hPa 0,0 l/m 0,0 km/h (0 Bft) N 5 0 min 0 W/m 7,7 C 8,8 C 0,0 km/h (0 Bft)
18.10.2017 02:25 8,8 C 8,8 C 94 % 1017,3 hPa 0,0 l/m 0,0 km/h (0 Bft) N 5 0 min 0 W/m 7,9 C 8,8 C 0,0 km/h (0 Bft)
18.10.2017 02:20 8,9 C 8,9 C 94 % 1017,3 hPa 0,0 l/m 0,0 km/h (0 Bft) N 5 0 min 0 W/m 8,0 C 8,9 C 1,6 km/h (1 Bft)
18.10.2017 02:15 8,9 C 8,9 C 93 % 1017,4 hPa 0,0 l/m 0,5 km/h (0 Bft) N 5 0 min 0 W/m 7,8 C 8,9 C 1,6 km/h (1 Bft)
18.10.2017 02:10 8,9 C 8,9 C 93 % 1017,4 hPa 0,0 l/m 1,0 km/h (0 Bft) N 5 0 min 0 W/m 7,8 C 8,9 C 1,6 km/h (1 Bft)
18.10.2017 02:05 9,0 C 9,0 C 93 % 1017,4 hPa 0,0 l/m 1,3 km/h (1 Bft) N 5 0 min 0 W/m 7,9 C 9,0 C 3,2 km/h (1 Bft)
18.10.2017 02:00 9,1 C 9,1 C 93 % 1017,4 hPa 0,0 l/m 0,8 km/h (0 Bft) N 5 0 min 0 W/m 8,0 C 9,1 C 3,2 km/h (1 Bft)
18.10.2017 01:55 9,1 C 9,1 C 93 % 1017,4 hPa 0,0 l/m 1,2 km/h (1 Bft) N 5 0 min 0 W/m 8,0 C 9,1 C 3,2 km/h (1 Bft)
18.10.2017 01:50 9,1 C 9,1 C 93 % 1017,4 hPa 0,0 l/m 0,4 km/h (0 Bft) N 5 0 min 0 W/m 8,0 C 9,1 C 1,6 km/h (1 Bft)
18.10.2017 01:45 9,2 C 9,2 C 93 % 1017,4 hPa 0,0 l/m 0,0 km/h (0 Bft) N 5 0 min 0 W/m 8,1 C 9,2 C 0,0 km/h (0 Bft)
18.10.2017 01:40 9,2 C 9,2 C 93 % 1017,4 hPa 0,0 l/m 0,0 km/h (0 Bft) N 5 0 min 0 W/m 8,1 C 9,2 C 0,0 km/h (0 Bft)
18.10.2017 01:35 9,3 C 9,3 C 93 % 1017,5 hPa 0,0 l/m 0,0 km/h (0 Bft) N 5 0 min 0 W/m 8,2 C 9,3 C 0,0 km/h (0 Bft)
18.10.2017 01:30 9,3 C 9,3 C 93 % 1017,5 hPa 0,0 l/m 0,0 km/h (0 Bft) N 5 0 min 0 W/m 8,2 C 9,3 C 0,0 km/h (0 Bft)
18.10.2017 01:25 9,3 C 9,3 C 93 % 1017,5 hPa 0,0 l/m 0,0 km/h (0 Bft) N 5 0 min 0 W/m 8,2 C 9,3 C 0,0 km/h (0 Bft)
18.10.2017 01:20 9,4 C 9,4 C 93 % 1017,5 hPa 0,0 l/m 0,0 km/h (0 Bft) N 5 0 min 0 W/m 8,3 C 9,4 C 0,0 km/h (0 Bft)
18.10.2017 01:15 9,4 C 9,4 C 93 % 1017,5 hPa 0,0 l/m 0,0 km/h (0 Bft) N 5 0 min 0 W/m 8,3 C 9,4 C 0,0 km/h (0 Bft)
18.10.2017 01:10 9,4 C 9,4 C 93 % 1017,5 hPa 0,0 l/m 0,1 km/h (0 Bft) N 5 0 min 0 W/m 8,3 C 9,4 C 1,6 km/h (1 Bft)
18.10.2017 01:05 9,4 C 9,4 C 93 % 1017,6 hPa 0,0 l/m 1,4 km/h (1 Bft) N 5 0 min 0 W/m 8,3 C 9,4 C 3,2 km/h (1 Bft)
18.10.2017 01:00 9,5 C 9,5 C 93 % 1017,6 hPa 0,0 l/m 0,5 km/h (0 Bft) N 5 0 min 0 W/m 8,4 C 9,5 C 1,6 km/h (1 Bft)
18.10.2017 00:55 9,6 C 9,6 C 93 % 1017,6 hPa 0,0 l/m 0,0 km/h (0 Bft) N 5 0 min 0 W/m 8,5 C 9,6 C 0,0 km/h (0 Bft)
18.10.2017 00:50 9,6 C 9,6 C 93 % 1017,7 hPa 0,0 l/m 0,0 km/h (0 Bft) N 5 0 min 0 W/m 8,5 C 9,6 C 0,0 km/h (0 Bft)
18.10.2017 00:45 9,7 C 9,7 C 93 % 1017,8 hPa 0,0 l/m 0,0 km/h (0 Bft) N 5 0 min 0 W/m 8,6 C 9,7 C 0,0 km/h (0 Bft)
18.10.2017 00:40 9,7 C 9,7 C 93 % 1017,8 hPa 0,0 l/m 0,0 km/h (0 Bft) N 5 0 min 0 W/m 8,6 C 9,7 C 0,0 km/h (0 Bft)
18.10.2017 00:35 9,8 C 9,8 C 93 % 1017,8 hPa 0,0 l/m 0,0 km/h (0 Bft) N 5 0 min 0 W/m 8,7 C 9,8 C 0,0 km/h (0 Bft)
18.10.2017 00:30 9,8 C 9,8 C 93 % 1017,8 hPa 0,0 l/m 0,0 km/h (0 Bft) N 5 0 min 0 W/m 8,7 C 9,8 C 0,0 km/h (0 Bft)
18.10.2017 00:25 9,9 C 9,9 C 93 % 1017,8 hPa 0,0 l/m 0,0 km/h (0 Bft) N 5 0 min 0 W/m 8,8 C 9,9 C 0,0 km/h (0 Bft)
18.10.2017 00:20 9,9 C 9,9 C 93 % 1017,9 hPa 0,0 l/m 0,0 km/h (0 Bft) N 5 0 min 0 W/m 8,8 C 9,9 C 0,0 km/h (0 Bft)
18.10.2017 00:15 9,9 C 9,9 C 92 % 1017,8 hPa 0,0 l/m 0,0 km/h (0 Bft) N 5 0 min 0 W/m 8,7 C 9,9 C 0,0 km/h (0 Bft)
18.10.2017 00:10 9,9 C 9,9 C 92 % 1017,9 hPa 0,0 l/m 0,3 km/h (0 Bft) N 5 0 min 0 W/m 8,7 C 9,9 C 1,6 km/h (1 Bft)
18.10.2017 00:05 9,9 C 9,9 C 92 % 1017,9 hPa 0,0 l/m 0,1 km/h (0 Bft) N 5 0 min 0 W/m 8,7 C 9,9 C 1,6 km/h (1 Bft)
18.10.2017 00:00 10,0 C 10,0 C 92 % 1017,9 hPa 0,0 l/m 0,0 km/h (0 Bft) N 5 0 min 0 W/m 8,8 C 10,0 C 0,0 km/h (0 Bft)
17.10.2017 23:55 10,1 C 10,1 C 92 % 1018,0 hPa 0,0 l/m 0,2 km/h (0 Bft) N 5 0 min 0 W/m 8,9 C 10,1 C 1,6 km/h (1 Bft)
17.10.2017 23:50 10,2 C 10,2 C 92 % 1018,0 hPa 0,0 l/m 0,8 km/h (0 Bft) N 5 0 min 0 W/m 9,0 C 10,2 C 3,2 km/h (1 Bft)
17.10.2017 23:45 10,2 C 10,2 C 92 % 1018,0 hPa 0,0 l/m 0,0 km/h (0 Bft) N 5 0 min 0 W/m 9,0 C 10,2 C 1,6 km/h (1 Bft)
17.10.2017 23:40 10,3 C 10,3 C 92 % 1018,0 hPa 0,0 l/m 0,0 km/h (0 Bft) N 5 0 min 0 W/m 9,1 C 10,3 C 0,0 km/h (0 Bft)
17.10.2017 23:35 10,3 C 10,3 C 92 % 1018,0 hPa 0,0 l/m 0,1 km/h (0 Bft) N 5 0 min 0 W/m 9,1 C 10,3 C 1,6 km/h (1 Bft)
17.10.2017 23:30 10,4 C 10,4 C 92 % 1018,2 hPa 0,0 l/m 1,4 km/h (1 Bft) N 5 0 min 0 W/m 9,2 C 10,4 C 3,2 km/h (1 Bft)
17.10.2017 23:25 10,4 C 10,4 C 92 % 1018,2 hPa 0,0 l/m 0,8 km/h (0 Bft) N 5 0 min 0 W/m 9,2 C 10,4 C 1,6 km/h (1 Bft)
17.10.2017 23:20 10,6 C 10,6 C 92 % 1018,3 hPa 0,0 l/m 0,0 km/h (0 Bft) N 5 0 min 0 W/m 9,4 C 10,6 C 1,6 km/h (1 Bft)
17.10.2017 23:15 10,6 C 10,6 C 92 % 1018,2 hPa 0,0 l/m 0,0 km/h (0 Bft) N 5 0 min 0 W/m 9,4 C 10,6 C 0,0 km/h (0 Bft)
17.10.2017 23:10 10,7 C 10,7 C 92 % 1018,2 hPa 0,0 l/m 0,0 km/h (0 Bft) N 5 0 min 0 W/m 9,5 C 10,7 C 0,0 km/h (0 Bft)
17.10.2017 23:05 10,8 C 10,8 C 92 % 1018,3 hPa 0,0 l/m 0,0 km/h (0 Bft) N 5 0 min 0 W/m 9,6 C 10,8 C 0,0 km/h (0 Bft)
17.10.2017 23:00 10,8 C 10,8 C 92 % 1018,3 hPa 0,0 l/m 0,0 km/h (0 Bft) N 5 0 min 0 W/m 9,6 C 10,8 C 0,0 km/h (0 Bft)
17.10.2017 22:55 10,9 C 10,9 C 92 % 1018,3 hPa 0,0 l/m 0,0 km/h (0 Bft) N 5 0 min 0 W/m 9,7 C 10,9 C 0,0 km/h (0 Bft)
17.10.2017 22:50 10,9 C 10,9 C 92 % 1018,3 hPa 0,0 l/m 0,0 km/h (0 Bft) N 5 0 min 0 W/m 9,7 C 10,9 C 0,0 km/h (0 Bft)
17.10.2017 22:45 11,0 C 11,0 C 92 % 1018,2 hPa 0,0 l/m 0,0 km/h (0 Bft) N 5 0 min 0 W/m 9,8 C 11,0 C 0,0 km/h (0 Bft)
17.10.2017 22:40 11,1 C 11,1 C 91 % 1018,2 hPa 0,0 l/m 0,0 km/h (0 Bft) N 5 0 min 0 W/m 9,7 C 11,1 C 0,0 km/h (0 Bft)
17.10.2017 22:35 11,2 C 11,2 C 91 % 1018,2 hPa 0,0 l/m 0,0 km/h (0 Bft) N 5 0 min 0 W/m 9,8 C 11,2 C 1,6 km/h (1 Bft)
17.10.2017 22:30 11,3 C 11,3 C 91 % 1018,2 hPa 0,0 l/m 0,0 km/h (0 Bft) N 5 0 min 0 W/m 9,9 C 11,3 C 1,6 km/h (1 Bft)
17.10.2017 22:25 11,3 C 11,3 C 91 % 1018,2 hPa 0,0 l/m 0,0 km/h (0 Bft) N 5 0 min 0 W/m 9,9 C 11,3 C 0,0 km/h (0 Bft)
17.10.2017 22:20 11,4 C 11,3 C 91 % 1018,1 hPa 0,0 l/m 0,0 km/h (0 Bft) N 5 0 min 0 W/m 10,0 C 11,4 C 0,0 km/h (0 Bft)
17.10.2017 22:15 11,4 C 11,4 C 91 % 1018,1 hPa 0,0 l/m 0,0 km/h (0 Bft) N 5 0 min 0 W/m 10,0 C 11,4 C 0,0 km/h (0 Bft)
17.10.2017 22:10 11,5 C 11,5 C 91 % 1018,2 hPa 0,0 l/m 0,0 km/h (0 Bft) N 5 0 min 0 W/m 10,1 C 11,5 C 0,0 km/h (0 Bft)
17.10.2017 22:05 11,6 C 11,6 C 91 % 1018,2 hPa 0,0 l/m 0,0 km/h (0 Bft) N 5 0 min 0 W/m 10,2 C 11,6 C 0,0 km/h (0 Bft)
17.10.2017 22:00 11,7 C 11,7 C 90 % 1018,2 hPa 0,0 l/m 0,0 km/h (0 Bft) N 5 0 min 0 W/m 10,1 C 11,7 C 0,0 km/h (0 Bft)
17.10.2017 21:55 11,8 C 11,8 C 90 % 1018,2 hPa 0,0 l/m 0,0 km/h (0 Bft) N 5 0 min 0 W/m 10,2 C 11,8 C 0,0 km/h (0 Bft)
17.10.2017 21:50 11,9 C 11,9 C 90 % 1018,2 hPa 0,0 l/m 0,2 km/h (0 Bft) N 5 0 min 0 W/m 10,3 C 11,9 C 1,6 km/h (1 Bft)
17.10.2017 21:45 12,0 C 12,0 C 90 % 1018,1 hPa 0,0 l/m 0,2 km/h (0 Bft) N 5 0 min 0 W/m 10,4 C 12,0 C 1,6 km/h (1 Bft)
17.10.2017 21:40 12,1 C 12,1 C 90 % 1018,1 hPa 0,0 l/m 0,7 km/h (0 Bft) N 5 0 min 0 W/m 10,5 C 12,1 C 1,6 km/h (1 Bft)
17.10.2017 21:35 12,2 C 12,2 C 90 % 1018,2 hPa 0,0 l/m 1,4 km/h (1 Bft) N 5 0 min 0 W/m 10,6 C 12,2 C 3,2 km/h (1 Bft)
17.10.2017 21:30 12,3 C 12,2 C 89 % 1018,2 hPa 0,0 l/m 0,4 km/h (0 Bft) N 5 0 min 0 W/m 10,5 C 12,3 C 1,6 km/h (1 Bft)
17.10.2017 21:25 12,3 C 12,3 C 89 % 1018,3 hPa 0,0 l/m 0,2 km/h (0 Bft) N 5 0 min 0 W/m 10,5 C 12,3 C 1,6 km/h (1 Bft)
17.10.2017 21:20 12,4 C 12,4 C 89 % 1018,3 hPa 0,0 l/m 0,5 km/h (0 Bft) N 5 0 min 0 W/m 10,6 C 12,4 C 1,6 km/h (1 Bft)
17.10.2017 21:15 12,6 C 12,6 C 89 % 1018,3 hPa 0,0 l/m 0,0 km/h (0 Bft) N 5 0 min 0 W/m 10,8 C 12,6 C 1,6 km/h (1 Bft)
17.10.2017 21:10 12,7 C 12,7 C 89 % 1018,4 hPa 0,0 l/m 1,0 km/h (0 Bft) N 5 0 min 0 W/m 10,9 C 12,7 C 1,6 km/h (1 Bft)
17.10.2017 21:05 12,8 C 12,8 C 89 % 1018,4 hPa 0,0 l/m 1,4 km/h (1 Bft) N 5 0 min 0 W/m 11,0 C 12,8 C 3,2 km/h (1 Bft)
17.10.2017 21:00 12,9 C 12,9 C 89 % 1018,4 hPa 0,0 l/m 1,7 km/h (1 Bft) N 5 0 min 0 W/m 11,1 C 12,9 C 3,2 km/h (1 Bft)
17.10.2017 20:55 13,1 C 13,1 C 89 % 1018,4 hPa 0,0 l/m 1,8 km/h (1 Bft) N 5 0 min 0 W/m 11,3 C 13,1 C 3,2 km/h (1 Bft)
17.10.2017 20:50 13,1 C 13,1 C 88 % 1018,4 hPa 0,0 l/m 2,4 km/h (1 Bft) N 5 0 min 0 W/m 11,2 C 13,1 C 3,2 km/h (1 Bft)
17.10.2017 20:45 13,2 C 13,2 C 88 % 1018,4 hPa 0,0 l/m 1,4 km/h (1 Bft) N 5 0 min 0 W/m 11,3 C 13,2 C 3,2 km/h (1 Bft)
17.10.2017 20:40 13,3 C 13,3 C 88 % 1018,4 hPa 0,0 l/m 1,6 km/h (1 Bft) N 5 0 min 0 W/m 11,4 C 13,3 C 3,2 km/h (1 Bft)
17.10.2017 20:35 13,4 C 13,4 C 87 % 1018,5 hPa 0,0 l/m 1,7 km/h (1 Bft) N 5 0 min 0 W/m 11,3 C 13,4 C 3,2 km/h (1 Bft)
17.10.2017 20:30 13,6 C 13,6 C 87 % 1018,5 hPa 0,0 l/m 1,5 km/h (1 Bft) N 5 0 min 0 W/m 11,5 C 13,6 C 3,2 km/h (1 Bft)
17.10.2017 20:25 13,8 C 13,8 C 87 % 1018,5 hPa 0,0 l/m 2,0 km/h (1 Bft) N 5 0 min 0 W/m 11,7 C 13,8 C 3,2 km/h (1 Bft)
17.10.2017 20:20 13,9 C 13,9 C 86 % 1018,5 hPa 0,0 l/m 2,1 km/h (1 Bft) N 5 0 min 0 W/m 11,6 C 13,9 C 3,2 km/h (1 Bft)
17.10.2017 20:15 14,1 C 14,1 C 86 % 1018,5 hPa 0,0 l/m 1,7 km/h (1 Bft) N 5 0 min 0 W/m 11,8 C 14,1 C 3,2 km/h (1 Bft)
17.10.2017 20:10 14,2 C 14,2 C 86 % 1018,6 hPa 0,0 l/m 1,7 km/h (1 Bft) N 5 0 min 0 W/m 11,9 C 14,2 C 3,2 km/h (1 Bft)
17.10.2017 20:05 14,3 C 14,3 C 86 % 1018,5 hPa 0,0 l/m 1,8 km/h (1 Bft) N 5 0 min 0 W/m 12,0 C 14,3 C 3,2 km/h (1 Bft)
17.10.2017 20:00 14,4 C 14,4 C 85 % 1018,6 hPa 0,0 l/m 2,3 km/h (1 Bft) N 5 0 min 0 W/m 11,9 C 14,4 C 3,2 km/h (1 Bft)
17.10.2017 19:55 14,6 C 14,6 C 85 % 1018,5 hPa 0,0 l/m 1,9 km/h (1 Bft) N 5 0 min 0 W/m 12,1 C 14,6 C 3,2 km/h (1 Bft)
17.10.2017 19:50 14,9 C 14,9 C 84 % 1018,6 hPa 0,0 l/m 1,6 km/h (1 Bft) N 5 0 min 0 W/m 12,2 C 14,9 C 3,2 km/h (1 Bft)
17.10.2017 19:45 15,2 C 15,2 C 83 % 1018,5 hPa 0,0 l/m 2,1 km/h (1 Bft) N 5 0 min 0 W/m 12,3 C 15,2 C 3,2 km/h (1 Bft)
17.10.2017 19:40 15,6 C 15,6 C 83 % 1018,5 hPa 0,0 l/m 1,9 km/h (1 Bft) N 355 0 min 0 W/m 12,7 C 15,6 C 3,2 km/h (1 Bft)
17.10.2017 19:35 15,7 C 15,7 C 83 % 1018,5 hPa 0,0 l/m 2,1 km/h (1 Bft) N 355 0 min 0 W/m 12,8 C 15,7 C 4,8 km/h (1 Bft)
17.10.2017 19:30 15,9 C 15,9 C 83 % 1018,5 hPa 0,0 l/m 2,8 km/h (1 Bft) N 355 0 min 0 W/m 13,0 C 15,9 C 4,8 km/h (1 Bft)
17.10.2017 19:25 16,1 C 16,1 C 83 % 1018,5 hPa 0,0 l/m 3,7 km/h (1 Bft) N 355 0 min 0 W/m 13,2 C 16,1 C 6,4 km/h (2 Bft)
17.10.2017 19:20 16,2 C 16,2 C 82 % 1018,5 hPa 0,0 l/m 3,5 km/h (1 Bft) N-NO 21 0 min 0 W/m 13,1 C 16,2 C 6,4 km/h (2 Bft)
17.10.2017 19:15 16,4 C 16,4 C 81 % 1018,5 hPa 0,0 l/m 3,1 km/h (1 Bft) N 355 0 min 0 W/m 13,1 C 16,4 C 6,4 km/h (2 Bft)
17.10.2017 19:10 16,6 C 16,6 C 80 % 1018,4 hPa 0,0 l/m 3,2 km/h (1 Bft) N 11 0 min 0 W/m 13,1 C 16,6 C 4,8 km/h (1 Bft)
17.10.2017 19:05 16,9 C 16,9 C 80 % 1018,4 hPa 0,0 l/m 3,1 km/h (1 Bft) NO 42 0 min 0 W/m 13,4 C 16,9 C 4,8 km/h (1 Bft)
17.10.2017 19:00 17,1 C 17,1 C 79 % 1018,3 hPa 0,0 l/m 3,7 km/h (1 Bft) NO 42 0 min 0 W/m 13,4 C 17,1 C 4,8 km/h (1 Bft)
17.10.2017 18:55 17,3 C 17,3 C 79 % 1018,3 hPa 0,0 l/m 4,2 km/h (1 Bft) NO 42 0 min 0 W/m 13,6 C 17,3 C 8,0 km/h (2 Bft)
17.10.2017 18:50 17,5 C 17,5 C 78 % 1018,4 hPa 0,0 l/m 3,5 km/h (1 Bft) N 5 0 min 0 W/m 13,6 C 17,5 C 6,4 km/h (2 Bft)
17.10.2017 18:45 17,7 C 17,7 C 77 % 1018,4 hPa 0,0 l/m 3,5 km/h (1 Bft) N-NW 340 0 min 0 W/m 13,6 C 17,7 C 6,4 km/h (2 Bft)
17.10.2017 18:40 18,0 C 18,0 C 76 % 1018,4 hPa 0,0 l/m 3,0 km/h (1 Bft) N-NW 348 0 min 0 W/m 13,7 C 18,0 C 4,8 km/h (1 Bft)
17.10.2017 18:35 18,2 C 18,2 C 75 % 1018,3 hPa 0,0 l/m 3,8 km/h (1 Bft) N 11 0 min 0 W/m 13,7 C 18,2 C 6,4 km/h (2 Bft)
17.10.2017 18:30 18,5 C 18,5 C 74 % 1018,3 hPa 0,0 l/m 3,7 km/h (1 Bft) N 5 0 min 0 W/m 13,8 C 18,5 C 6,4 km/h (2 Bft)
17.10.2017 18:25 18,8 C 18,8 C 72 % 1018,4 hPa 0,0 l/m 4,1 km/h (1 Bft) N-NO 13 0 min 0 W/m 13,6 C 18,8 C 6,4 km/h (2 Bft)
17.10.2017 18:20 19,1 C 19,1 C 71 % 1018,4 hPa 0,0 l/m 2,6 km/h (1 Bft) N 5 0 min 0 W/m 13,7 C 19,1 C 6,4 km/h (2 Bft)
17.10.2017 18:15 19,4 C 19,4 C 71 % 1018,3 hPa 0,0 l/m 1,8 km/h (1 Bft) NO 46 0 min 0 W/m 14,0 C 19,4 C 3,2 km/h (1 Bft)
17.10.2017 18:10 19,6 C 19,6 C 68 % 1018,4 hPa 0,0 l/m 2,6 km/h (1 Bft) NO 45 0 min 0 W/m 13,5 C 19,6 C 4,8 km/h (1 Bft)
17.10.2017 18:05 19,8 C 19,8 C 66 % 1018,4 hPa 0,0 l/m 3,6 km/h (1 Bft) N-NO 27 0 min 0 W/m 13,3 C 19,8 C 6,4 km/h (2 Bft)
17.10.2017 18:00 20,2 C 20,2 C 66 % 1018,4 hPa 0,0 l/m 1,1 km/h (1 Bft) NO 39 0 min 0 W/m 13,6 C 20,2 C 4,8 km/h (1 Bft)
17.10.2017 17:55 20,6 C 20,6 C 65 % 1018,4 hPa 0,0 l/m 1,6 km/h (1 Bft) NW 323 0 min 0 W/m 13,8 C 20,6 C 4,8 km/h (1 Bft)
17.10.2017 17:50 20,9 C 20,9 C 64 % 1018,4 hPa 0,0 l/m 1,5 km/h (1 Bft) NW 323 0 min 0 W/m 13,8 C 20,9 C 3,2 km/h (1 Bft)
17.10.2017 17:45 21,2 C 21,2 C 62 % 1018,5 hPa 0,0 l/m 1,8 km/h (1 Bft) NW 323 0 min 0 W/m 13,6 C 21,2 C 3,2 km/h (1 Bft)
17.10.2017 17:40 21,4 C 21,4 C 62 % 1018,5 hPa 0,0 l/m 2,0 km/h (1 Bft) N-NW 338 0 min 0 W/m 13,8 C 21,4 C 6,4 km/h (2 Bft)
17.10.2017 17:35 21,6 C 21,6 C 59 % 1018,6 hPa 0,0 l/m 2,3 km/h (1 Bft) N 10 0 min 0 W/m 13,2 C 21,6 C 6,4 km/h (2 Bft)
17.10.2017 17:30 21,7 C 21,7 C 59 % 1018,6 hPa 0,0 l/m 3,4 km/h (1 Bft) N-NO 32 0 min 0 W/m 13,3 C 21,7 C 6,4 km/h (2 Bft)
17.10.2017 17:25 21,8 C 21,8 C 58 % 1018,6 hPa 0,0 l/m 4,6 km/h (1 Bft) N-NO 32 0 min 0 W/m 13,2 C 21,8 C 11,3 km/h (2 Bft)
17.10.2017 17:20 21,9 C 21,9 C 58 % 1018,7 hPa 0,0 l/m 4,5 km/h (1 Bft) N 355 0 min 0 W/m 13,3 C 21,9 C 8,0 km/h (2 Bft)
17.10.2017 17:15 21,9 C 21,9 C 58 % 1018,8 hPa 0,0 l/m 4,1 km/h (1 Bft) N 355 0 min 0 W/m 13,3 C 21,9 C 8,0 km/h (2 Bft)
17.10.2017 17:10 21,9 C 21,9 C 58 % 1018,9 hPa 0,0 l/m 5,0 km/h (1 Bft) N 11 0 min 0 W/m 13,3 C 21,9 C 11,3 km/h (2 Bft)
17.10.2017 17:05 21,9 C 21,9 C 58 % 1018,9 hPa 0,0 l/m 4,4 km/h (1 Bft) N 360 0 min 0 W/m 13,3 C 21,9 C 8,0 km/h (2 Bft)
17.10.2017 17:00 21,9 C 21,9 C 60 % 1018,9 hPa 0,0 l/m 3,0 km/h (1 Bft) N-NO 32 0 min 0 W/m 13,8 C 21,9 C 6,4 km/h (2 Bft)
17.10.2017 16:55 22,0 C 22,0 C 59 % 1019,0 hPa 0,0 l/m 4,1 km/h (1 Bft) N 355 0 min 0 W/m 13,6 C 22,0 C 6,4 km/h (2 Bft)
17.10.2017 16:50 22,1 C 22,1 C 60 % 1019,0 hPa 0,0 l/m 3,1 km/h (1 Bft) N-NO 32 0 min 0 W/m 14,0 C 22,1 C 8,0 km/h (2 Bft)
17.10.2017 16:45 22,2 C 22,2 C 60 % 1019,0 hPa 0,0 l/m 1,2 km/h (1 Bft) N-NO 24 0 min 0 W/m 14,1 C 22,2 C 4,8 km/h (1 Bft)
17.10.2017 16:40 22,2 C 22,2 C 57 % 1019,1 hPa 0,0 l/m 3,1 km/h (1 Bft) N-NO 29 0 min 0 W/m 13,3 C 22,2 C 6,4 km/h (2 Bft)
17.10.2017 16:35 22,3 C 22,3 C 57 % 1019,1 hPa 0,0 l/m 3,8 km/h (1 Bft) N-NW 327 0 min 0 W/m 13,4 C 22,3 C 8,0 km/h (2 Bft)
17.10.2017 16:30 22,3 C 22,3 C 55 % 1019,1 hPa 0,0 l/m 3,8 km/h (1 Bft) W 263 0 min 0 W/m 12,8 C 22,3 C 6,4 km/h (2 Bft)
17.10.2017 16:25 22,3 C 22,3 C 56 % 1019,2 hPa 0,0 l/m 2,8 km/h (1 Bft) W 277 0 min 0 W/m 13,1 C 22,3 C 6,4 km/h (2 Bft)
17.10.2017 16:20 22,4 C 22,4 C 55 % 1019,2 hPa 0,0 l/m 3,2 km/h (1 Bft) W-NW 296 0 min 0 W/m 12,9 C 22,4 C 6,4 km/h (2 Bft)
17.10.2017 16:15 22,4 C 22,3 C 56 % 1019,3 hPa 0,0 l/m 4,6 km/h (1 Bft) W-NW 292 0 min 0 W/m 13,2 C 22,4 C 8,0 km/h (2 Bft)
17.10.2017 16:10 22,4 C 22,4 C 56 % 1019,3 hPa 0,0 l/m 4,3 km/h (1 Bft) W-NW 302 0 min 0 W/m 13,2 C 22,4 C 6,4 km/h (2 Bft)
17.10.2017 16:05 22,4 C 22,3 C 57 % 1019,4 hPa 0,0 l/m 4,0 km/h (1 Bft) N-NW 331 0 min 0 W/m 13,5 C 22,4 C 9,7 km/h (2 Bft)
17.10.2017 16:00 22,3 C 22,3 C 56 % 1019,4 hPa 0,0 l/m 4,7 km/h (1 Bft) NW 316 0 min 0 W/m 13,1 C 22,3 C 8,0 km/h (2 Bft)
17.10.2017 15:55 22,3 C 22,3 C 56 % 1019,5 hPa 0,0 l/m 4,3 km/h (1 Bft) NW 309 0 min 0 W/m 13,1 C 22,3 C 9,7 km/h (2 Bft)
17.10.2017 15:50 22,3 C 22,3 C 56 % 1019,5 hPa 0,0 l/m 4,4 km/h (1 Bft) NW 308 0 min 0 W/m 13,1 C 22,3 C 8,0 km/h (2 Bft)
17.10.2017 15:45 22,3 C 22,3 C 57 % 1019,5 hPa 0,0 l/m 3,7 km/h (1 Bft) W-NW 284 0 min 0 W/m 13,4 C 22,3 C 8,0 km/h (2 Bft)
17.10.2017 15:40 22,4 C 22,4 C 57 % 1019,6 hPa 0,0 l/m 4,1 km/h (1 Bft) W 281 0 min 0 W/m 13,5 C 22,4 C 8,0 km/h (2 Bft)
17.10.2017 15:35 22,4 C 22,3 C 56 % 1019,6 hPa 0,0 l/m 5,6 km/h (1 Bft) W-NW 296 0 min 0 W/m 13,2 C 22,4 C 9,7 km/h (2 Bft)
17.10.2017 15:30 22,3 C 22,2 C 55 % 1019,8 hPa 0,0 l/m 4,9 km/h (1 Bft) NW 308 0 min 0 W/m 12,8 C 22,3 C 8,0 km/h (2 Bft)
17.10.2017 15:25 22,2 C 22,1 C 55 % 1019,8 hPa 0,0 l/m 4,3 km/h (1 Bft) NW 311 0 min 0 W/m 12,7 C 22,2 C 9,7 km/h (2 Bft)
17.10.2017 15:20 22,1 C 22,1 C 55 % 1019,9 hPa 0,0 l/m 3,2 km/h (1 Bft) W-NW 286 0 min 0 W/m 12,6 C 22,1 C 6,4 km/h (2 Bft)
17.10.2017 15:15 22,1 C 21,9 C 55 % 1019,9 hPa 0,0 l/m 3,9 km/h (1 Bft) W 279 0 min 0 W/m 12,6 C 22,1 C 8,0 km/h (2 Bft)
17.10.2017 15:10 21,9 C 21,9 C 55 % 1020,0 hPa 0,0 l/m 3,6 km/h (1 Bft) N-NW 336 0 min 0 W/m 12,4 C 21,9 C 6,4 km/h (2 Bft)
17.10.2017 15:05 21,9 C 21,9 C 55 % 1020,0 hPa 0,0 l/m 2,2 km/h (1 Bft) N 355 0 min 0 W/m 12,4 C 21,9 C 4,8 km/h (1 Bft)
17.10.2017 15:00 21,9 C 21,9 C 56 % 1020,1 hPa 0,0 l/m 2,1 km/h (1 Bft) NO 53 0 min 0 W/m 12,7 C 21,9 C 4,8 km/h (1 Bft)
17.10.2017 14:55 21,9 C 21,9 C 55 % 1020,1 hPa 0,0 l/m 2,2 km/h (1 Bft) NO 51 0 min 0 W/m 12,4 C 21,9 C 4,8 km/h (1 Bft)
17.10.2017 14:50 21,9 C 21,9 C 55 % 1020,3 hPa 0,0 l/m 2,4 km/h (1 Bft) W 269 0 min 0 W/m 12,4 C 21,9 C 6,4 km/h (2 Bft)
17.10.2017 14:45 21,9 C 21,9 C 54 % 1020,4 hPa 0,0 l/m 2,9 km/h (1 Bft) W 281 0 min 0 W/m 12,2 C 21,9 C 4,8 km/h (1 Bft)
17.10.2017 14:40 21,9 C 21,9 C 54 % 1020,5 hPa 0,0 l/m 2,9 km/h (1 Bft) W 277 0 min 0 W/m 12,2 C 21,9 C 9,7 km/h (2 Bft)
17.10.2017 14:35 21,9 C 21,8 C 55 % 1020,5 hPa 0,0 l/m 2,8 km/h (1 Bft) W 267 0 min 0 W/m 12,4 C 21,9 C 4,8 km/h (1 Bft)
17.10.2017 14:30 21,8 C 21,8 C 55 % 1020,6 hPa 0,0 l/m 3,4 km/h (1 Bft) W-NW 290 0 min 0 W/m 12,4 C 21,8 C 6,4 km/h (2 Bft)
17.10.2017 14:25 21,8 C 21,8 C 56 % 1020,7 hPa 0,0 l/m 4,3 km/h (1 Bft) N-NW 337 0 min 0 W/m 12,6 C 21,8 C 9,7 km/h (2 Bft)
17.10.2017 14:20 21,8 C 21,6 C 56 % 1020,7 hPa 0,0 l/m 5,1 km/h (1 Bft) W 277 0 min 0 W/m 12,6 C 21,8 C 11,3 km/h (2 Bft)
17.10.2017 14:15 21,6 C 21,6 C 56 % 1020,8 hPa 0,0 l/m 3,5 km/h (1 Bft) N 5 0 min 0 W/m 12,4 C 21,6 C 6,4 km/h (2 Bft)
17.10.2017 14:10 21,6 C 21,6 C 57 % 1020,9 hPa 0,0 l/m 3,4 km/h (1 Bft) W 268 0 min 0 W/m 12,7 C 21,6 C 9,7 km/h (2 Bft)
17.10.2017 14:05 21,6 C 21,6 C 58 % 1021,0 hPa 0,0 l/m 3,4 km/h (1 Bft) W 276 0 min 0 W/m 13,0 C 21,6 C 6,4 km/h (2 Bft)
17.10.2017 14:00 21,6 C 21,5 C 57 % 1021,1 hPa 0,0 l/m 3,8 km/h (1 Bft) W 275 0 min 0 W/m 12,7 C 21,6 C 9,7 km/h (2 Bft)
17.10.2017 13:55 21,5 C 21,4 C 56 % 1021,2 hPa 0,0 l/m 2,1 km/h (1 Bft) W 281 0 min 0 W/m 12,3 C 21,5 C 4,8 km/h (1 Bft)
17.10.2017 13:50 21,4 C 21,4 C 58 % 1021,3 hPa 0,0 l/m 2,1 km/h (1 Bft) W 259 0 min 0 W/m 12,8 C 21,4 C 4,8 km/h (1 Bft)
17.10.2017 13:45 21,5 C 21,5 C 57 % 1021,3 hPa 0,0 l/m 1,6 km/h (1 Bft) W-SW 257 0 min 0 W/m 12,6 C 21,5 C 4,8 km/h (1 Bft)
17.10.2017 13:40 21,6 C 21,6 C 57 % 1021,4 hPa 0,0 l/m 2,2 km/h (1 Bft) W 276 0 min 0 W/m 12,7 C 21,6 C 6,4 km/h (2 Bft)
17.10.2017 13:35 21,6 C 21,6 C 55 % 1021,5 hPa 0,0 l/m 2,3 km/h (1 Bft) N-NW 338 0 min 0 W/m 12,2 C 21,6 C 4,8 km/h (1 Bft)
17.10.2017 13:30 21,7 C 21,6 C 57 % 1021,6 hPa 0,0 l/m 1,8 km/h (1 Bft) W-NW 299 0 min 0 W/m 12,8 C 21,7 C 4,8 km/h (1 Bft)
17.10.2017 13:25 21,7 C 21,4 C 60 % 1021,7 hPa 0,0 l/m 1,2 km/h (1 Bft) NW 312 0 min 0 W/m 13,6 C 21,7 C 4,8 km/h (1 Bft)
17.10.2017 13:20 21,4 C 21,3 C 59 % 1021,9 hPa 0,0 l/m 1,8 km/h (1 Bft) N-NW 338 0 min 0 W/m 13,0 C 21,4 C 4,8 km/h (1 Bft)
17.10.2017 13:15 21,3 C 21,1 C 61 % 1022,0 hPa 0,0 l/m 0,9 km/h (0 Bft) S 182 0 min 0 W/m 13,5 C 21,3 C 1,6 km/h (1 Bft)
17.10.2017 13:10 21,1 C 21,0 C 60 % 1022,0 hPa 0,0 l/m 1,9 km/h (1 Bft) S 182 0 min 0 W/m 13,0 C 21,1 C 3,2 km/h (1 Bft)
17.10.2017 13:05 21,0 C 20,9 C 63 % 1022,1 hPa 0,0 l/m 2,7 km/h (1 Bft) S 175 0 min 0 W/m 13,7 C 21,0 C 4,8 km/h (1 Bft)
17.10.2017 13:00 21,1 C 20,9 C 63 % 1022,1 hPa 0,0 l/m 2,2 km/h (1 Bft) S 173 0 min 0 W/m 13,8 C 21,1 C 4,8 km/h (1 Bft)
17.10.2017 12:55 20,9 C 20,6 C 67 % 1022,2 hPa 0,0 l/m 2,8 km/h (1 Bft) S-SO 151 0 min 0 W/m 14,5 C 20,9 C 4,8 km/h (1 Bft)
17.10.2017 12:50 20,6 C 20,4 C 66 % 1022,3 hPa 0,0 l/m 2,1 km/h (1 Bft) SO 134 0 min 0 W/m 14,0 C 20,6 C 4,8 km/h (1 Bft)
17.10.2017 12:45 20,4 C 20,4 C 68 % 1022,4 hPa 0,0 l/m 1,9 km/h (1 Bft) S-SO 158 0 min 0 W/m 14,3 C 20,4 C 3,2 km/h (1 Bft)
17.10.2017 12:40 20,6 C 20,4 C 66 % 1022,5 hPa 0,0 l/m 2,4 km/h (1 Bft) S 174 0 min 0 W/m 14,0 C 20,6 C 6,4 km/h (2 Bft)
17.10.2017 12:35 20,4 C 20,2 C 67 % 1022,6 hPa 0,0 l/m 0,8 km/h (0 Bft) S 180 0 min 0 W/m 14,1 C 20,4 C 3,2 km/h (1 Bft)
17.10.2017 12:30 20,2 C 19,8 C 69 % 1022,6 hPa 0,0 l/m 2,5 km/h (1 Bft) S 179 0 min 0 W/m 14,3 C 20,2 C 4,8 km/h (1 Bft)
17.10.2017 12:25 19,8 C 19,4 C 70 % 1022,7 hPa 0,0 l/m 2,0 km/h (1 Bft) S-SW 206 0 min 0 W/m 14,2 C 19,8 C 4,8 km/h (1 Bft)
17.10.2017 12:20 19,4 C 18,9 C 71 % 1022,7 hPa 0,0 l/m 1,5 km/h (1 Bft) S-SW 193 0 min 0 W/m 14,0 C 19,4 C 3,2 km/h (1 Bft)
17.10.2017 12:15 18,9 C 18,8 C 72 % 1022,8 hPa 0,0 l/m 0,7 km/h (0 Bft) W-SW 242 0 min 0 W/m 13,7 C 18,9 C 3,2 km/h (1 Bft)
17.10.2017 12:10 18,9 C 18,7 C 73 % 1022,8 hPa 0,0 l/m 3,0 km/h (1 Bft) W-SW 242 0 min 0 W/m 13,9 C 18,9 C 6,4 km/h (2 Bft)
17.10.2017 12:05 18,7 C 18,3 C 74 % 1022,9 hPa 0,0 l/m 2,7 km/h (1 Bft) S-SW 193 0 min 0 W/m 14,0 C 18,7 C 6,4 km/h (2 Bft)
17.10.2017 12:00 18,3 C 18,0 C 76 % 1023,0 hPa 0,0 l/m 3,5 km/h (1 Bft) SW 219 0 min 0 W/m 14,0 C 18,3 C 8,0 km/h (2 Bft)
17.10.2017 11:55 18,0 C 17,7 C 76 % 1023,1 hPa 0,0 l/m 3,4 km/h (1 Bft) SW 231 0 min 0 W/m 13,7 C 18,0 C 6,4 km/h (2 Bft)
17.10.2017 11:50 17,7 C 17,3 C 77 % 1023,1 hPa 0,0 l/m 4,0 km/h (1 Bft) S-SW 212 0 min 0 W/m 13,6 C 17,7 C 8,0 km/h (2 Bft)
17.10.2017 11:45 17,3 C 16,6 C 79 % 1023,1 hPa 0,0 l/m 4,7 km/h (1 Bft) S-SW 213 0 min 0 W/m 13,6 C 17,3 C 8,0 km/h (2 Bft)
17.10.2017 11:40 16,6 C 16,0 C 81 % 1023,2 hPa 0,0 l/m 4,2 km/h (1 Bft) S-SW 207 0 min 0 W/m 13,3 C 16,6 C 8,0 km/h (2 Bft)
17.10.2017 11:35 16,0 C 15,7 C 82 % 1023,3 hPa 0,0 l/m 3,5 km/h (1 Bft) SW 215 0 min 0 W/m 12,9 C 16,0 C 8,0 km/h (2 Bft)
17.10.2017 11:30 15,7 C 15,4 C 85 % 1023,3 hPa 0,0 l/m 4,0 km/h (1 Bft) S 188 0 min 0 W/m 13,2 C 15,7 C 8,0 km/h (2 Bft)
17.10.2017 11:25 15,4 C 15,2 C 85 % 1023,3 hPa 0,0 l/m 4,2 km/h (1 Bft) S-SO 163 0 min 0 W/m 12,9 C 15,4 C 8,0 km/h (2 Bft)
17.10.2017 11:20 15,2 C 14,9 C 86 % 1023,4 hPa 0,0 l/m 4,6 km/h (1 Bft) SW 222 0 min 0 W/m 12,9 C 15,2 C 8,0 km/h (2 Bft)
17.10.2017 11:15 14,9 C 14,6 C 87 % 1023,4 hPa 0,0 l/m 4,8 km/h (1 Bft) SW 217 0 min 0 W/m 12,8 C 14,9 C 8,0 km/h (2 Bft)
17.10.2017 11:10 14,6 C 14,2 C 88 % 1023,5 hPa 0,0 l/m 3,4 km/h (1 Bft) S 186 0 min 0 W/m 12,6 C 14,6 C 6,4 km/h (2 Bft)
17.10.2017 11:05 14,2 C 13,9 C 89 % 1023,5 hPa 0,0 l/m 2,6 km/h (1 Bft) SW 217 0 min 0 W/m 12,4 C 14,2 C 4,8 km/h (1 Bft)
17.10.2017 11:00 13,9 C 13,6 C 89 % 1023,5 hPa 0,0 l/m 3,8 km/h (1 Bft) S-SW 211 0 min 0 W/m 12,1 C 13,9 C 6,4 km/h (2 Bft)
_ Min-Zeit 08:00 08:00 14:40 10:55 - 21:15 - - - - 08:00 08:00 21:55
Minimum _ 6,8 C 6,8 C 54 % 1016,1 hPa - 0,0 km/h (0 Bft) - - - - 6,1 C 6,8 C 0,0 km/h (0 Bft)
_ Max-Zeit 15:35 15:40 09:45 11:00 11:00 10:10 - - 11:00 11:00 12:55 15:35 14:20
Maximum _ 22,4 C 22,4 C 97 % 1023,5 hPa 0,0 l/m 7,5 km/h
S-SW (2 Bft)
- - 0 min 0 W/m 14,5 C 22,4 C 11,3 km/h
W-NW (2 Bft)
Durchschnitt _ 13,3 C 13,3 C 83 % 1018,4 hPa #0,0 l/m 1,7 km/h (1 Bft) N - #0 min. 0 W/m 10,1 C 13,3 C 3,8 km/h (1 Bft)